Wetbulb
50.25 50.28 50.23 51.41 51.99 50.91 51.74 53.79 51.29 53.03 52.63 56.86 58.36 61.20 63.13 64.51 65.19 65.00 63.63 64.68 64.97 65.31 65.68 66.35 67.17 68.88 70.08 70.48 70.73 69.34 68.60 67.77 68.04 68.29 68.97 70.27 69.69 68.79 68.03 68.78 69.21 68.90 68.94 69.16
52.68 54.01 54.20 52.69 54.14 53.69 52.86 53.08 52.82 54.18 55.19 60.03 61.14 62.23 62.67 64.66 64.65 63.30 63.34 64.18 64.42 65.08 65.08 65.22 66.71 67.18 67.33 68.06 68.93 68.50 68.29 67.18 68.06 68.20 68.05 67.20 68.01 67.16 65.46 64.93 65.70 66.56 66.86 67.44
50.12 52.92 52.98 51.04 54.71 55.40 55.70 57.25 56.62 54.40 58.58 61.52 60.98 60.94 62.84 63.30 64.84 64.80 65.10 65.28 63.89 64.62 65.79 65.69 65.70 67.00 66.21 67.27 68.55 68.80 66.59 67.72 66.11 65.32 64.91 65.04 65.88 65.86 64.66 64.66 64.83 64.76 64.23 64.99
50.29 51.71 45.50 53.84 56.10 56.82 56.20 57.79 59.52 60.19 61.11 61.10 61.39 62.50 63.92 66.00 66.06 65.84 66.28 66.40 65.70 65.39 65.44 65.24 65.64 65.61 66.82 67.86 68.28 68.20 67.74 65.92 66.26 67.42 66.20 66.28 66.54 64.77 64.66 63.95 63.64 63.89 63.63 64.00
49.74 48.93 50.86 53.44 57.55 57.38 56.18 56.70 61.30 60.96 61.89 60.47 61.96 62.77 63.27 66.52 67.25 67.33 67.21 67.27 66.07 65.69 66.52 66.35 66.14 66.51 66.45 65.47 64.79 64.30 63.98 62.80 63.38 64.01 63.59 63.73 63.01 63.08 63.03 63.04 62.64 62.44 62.53 62.82
50.02 46.54 44.27 52.74 56.50 59.39 59.72 54.10 62.14 62.39 62.68 61.40 62.55 58.63 61.94 66.54 66.84 66.75 67.07 66.57 65.15 65.01 65.20 65.37 65.80 65.97 64.05 63.48 63.27 62.93 63.45 63.43 62.88 63.10 62.97 62.22 62.01 62.18 62.84 63.08 62.81 61.97 61.82 62.92
48.87 47.23 49.80 55.06 57.49 59.72 51.78 52.59 60.52 62.48 62.66 62.48 61.21 63.09 66.29 67.05 66.38 66.70 65.26 64.69 65.29 65.20 64.75 64.49 64.46 63.66 62.56 62.74 62.31 63.05 63.48 63.57 63.04 63.10 62.91 63.17 62.59 62.94 62.82 63.06 62.13 61.86 61.41 62.20
48.47 47.15 44.52 56.81 57.38 54.73 58.06 62.97 63.97 64.57 63.81 63.38 64.84 65.26 65.11 64.69 64.21 64.11 63.11 63.45 64.08 62.79 62.26 63.08 63.60 63.48 62.37 61.80 62.88 63.28 63.55 62.72 61.35 61.56 61.02 60.22 60.06 60.74 61.02 61.07 60.23 60.33 60.36 60.27
51.90 53.21 56.33 57.85 58.02 60.44 61.50 62.16 65.07 64.17 64.39 64.44 65.26 64.69 64.16 63.48 64.53 63.71 63.36 62.60 62.42 61.27 60.58 61.51 62.86 62.50 61.39 61.38 61.94 62.52 61.84 60.54 59.91 58.49 57.44 57.51 56.83 58.06 58.67 59.48 59.38 58.91 58.56 58.71
52.25 54.76 56.52 58.03 59.64 60.23 63.14 65.08 66.03 65.12 65.14 65.19 64.86 65.04 64.39 64.16 63.91 62.83 62.04 61.13 61.63 61.61 61.20 60.84 61.45 61.45 61.05 60.75 61.65 60.68 59.33 58.56 58.07 57.92 58.09 58.65 57.86 57.05 56.38 57.01 57.03 58.08 58.00 57.76
52.66 55.35 56.79 57.70 59.38 60.46 64.06 65.46 64.87 64.52 65.20 65.49 64.41 64.20 64.13 63.09 62.59 61.67 61.60 61.72 62.13 61.29 60.33 59.46 60.04 59.41 59.46 59.69 59.37 57.78 57.50 57.16 56.72 57.05 57.75 57.61 57.38 56.55 57.26 58.59 56.48 56.96 57.69 58.10
49.81 53.69 53.50 56.44 58.85 59.76 61.82 64.80 64.38 63.61 63.81 63.80 63.93 63.05 63.03 62.43 62.36 62.23 61.46 61.09 60.78 60.34 59.63 58.82 58.40 57.81 58.17 58.59 58.41 56.89 55.72 55.19 55.15 56.11 57.09 57.30 55.94 55.71 53.33 51.26 49.51 47.40 46.56 50.45
52.65 54.89 54.41 56.15 58.97 60.29 62.00 64.79 63.86 63.72 63.55 62.28 61.96 61.87 61.81 61.08 61.52 58.92 61.03 60.57 60.11 59.31 58.26 56.86 57.08 56.92 57.95 58.33 58.21 57.17 55.92 55.93 55.71 55.32 56.55 56.25 56.26 55.10 53.81 54.39 49.16 47.48 45.65 45.19
55.51 55.49 56.34 58.52 58.08 59.90 62.57 62.44 61.02 61.87 61.56 61.05 60.75 61.33 60.85 59.77 59.95 59.96 59.45 59.36 58.98 57.33 56.62 57.20 56.93 56.61 58.08 58.37 58.22 57.42 56.82 50.40 57.47 57.69 57.43 56.56 55.79 55.41 55.47 54.88 54.56 55.97 52.11 51.86
55.07 55.99 55.06 56.47 57.36 58.78 60.83 61.21 60.42 59.51 59.48 59.35 60.53 60.01 59.77 59.06 58.99 58.67 58.69 58.18 57.35 56.73 56.82 57.45 57.43 57.41 58.14 58.05 57.47 56.99 56.80 57.29 57.54 57.54 57.39 55.58 56.60 55.79 55.58 55.54 55.51 55.51 56.46 53.01
55.05 56.62 55.87 55.53 56.71 57.96 59.38 59.26 59.13 58.44 58.94 58.55 58.78 58.90 59.25 59.11 58.54 57.33 57.50 57.64 57.10 56.30 57.54 57.85 58.10 58.98 59.39 58.52 58.50 57.97 57.83 54.94 53.81 57.00 57.03 56.87 56.75 56.00 55.47 55.12 55.35 55.25 55.19 55.63
54.37 54.52 54.93 54.94 54.64 55.90 57.69 59.43 59.63 58.70 58.35 58.31 58.42 58.70 58.36 57.74 56.88 56.46 56.77 57.23 57.28 57.26 57.96 58.20 58.05 59.68 59.31 59.27 59.02 58.05 58.09 58.12 56.18 56.69 57.20 56.75 56.54 56.28 56.37 55.96 55.37 55.28 55.46 55.44
56.47 56.66 56.20 55.77 55.67 56.67 56.70 57.35 57.82 58.55 58.32 58.40 58.09 57.52 56.72 56.01 55.87 56.48 56.93 57.23 57.60 57.67 58.04 58.38 58.43 58.78 59.31 59.31 59.09 58.60 58.25 58.16 57.96 57.58 57.72 56.86 56.52 56.69 56.43 56.41 56.07 55.62 55.80 55.10
56.34 56.24 55.88 55.51 56.17 57.04 56.53 55.74 56.12 56.33 56.99 57.12 56.59 56.56 57.13 57.32 57.53 57.81 57.53 57.52 57.01 56.51 57.21 58.13 56.13 57.40 59.11 59.45 57.97 58.87 58.51 58.05 57.77 57.94 57.92 55.10 56.19 56.70 56.14 55.78 55.40 55.73 55.55 54.41
56.08 56.45 56.48 56.26 56.93 56.03 56.20 55.78 56.13 55.68 56.38 57.30 57.26 55.20 55.13 56.01 55.91 57.51 57.75 56.54 57.20 56.92 58.48 58.17 58.13 58.89 59.21 59.51 57.52 57.59 57.68 57.71 57.38 57.17 56.99 55.96 55.99 55.69 55.91 51.29 54.17 54.76 54.02 53.39
55.66 55.82 55.12 54.99 56.13 56.38 56.85 56.07 55.92 55.19 55.50 55.83 55.45 57.23 58.12 57.88 57.56 57.15 56.08 55.09 57.65 57.83 57.90 56.20 57.83 57.92 57.73 56.55 56.82 56.80 56.55 56.29 56.22 56.13 53.46 53.13 55.60 55.93 53.52 55.68 54.92 53.98 53.22 53.17
53.93 54.34 54.38 53.71 53.44 54.25 55.97 56.22 56.57 56.21 56.76 57.45 57.76 57.79 56.93 56.63 56.73 56.70 57.75 56.87 58.25 51.67 56.36 58.18 57.97 55.84 55.76 53.91 56.91 56.48 56.09 55.82 55.87 56.02 55.32 54.14 55.43 54.39 54.45 55.48 54.18 53.60 53.55 53.42
55.91 53.36 53.85 53.91 53.83 54.60 55.94 57.18 57.48 57.11 56.72 55.94 56.63 56.81 56.81 56.95 56.53 54.98 54.70 58.31 57.80 55.51 57.51 57.84 53.69 52.24 52.15 56.52 56.93 56.78 55.57 55.27 55.49 55.23 54.31 55.97 56.45 54.27 55.00 55.06 54.51 54.10 53.64 53.59
55.70 54.25 52.85 53.42 54.94 55.65 54.99 55.35 56.98 56.58 56.41 56.65 56.88 56.45 56.05 55.85 56.70 57.49 57.98 53.85 50.56 52.23 56.87 56.17 53.58 50.42 49.57 57.09 56.89 56.47 56.05 52.58 51.74 53.72 56.93 49.81 55.85 54.74 56.12 55.41 54.64 54.59 54.16 52.83
53.72 53.34 52.99 53.66 53.43 55.13 56.41 56.57 56.07 54.44 54.33 55.73 55.40 57.08 57.61 58.28 57.23 58.29 57.94 57.33 52.26 53.52 56.83 51.89 50.18 50.34 56.40 57.14 56.28 56.60 56.75 56.40 56.31 56.13 56.25 55.53 55.68 55.84 55.51 54.39 53.19 53.72 54.49 54.71
54.25 53.23 53.09 53.89 53.14 54.72 55.82 55.38 53.73 54.03 54.94 55.20 56.21 58.36 57.35 57.78 57.72 55.99 57.37 54.14 57.13 53.87 56.47 56.95 56.93 55.83 57.12 57.22 57.41 56.90 56.96 57.31 57.05 57.23 55.85 56.83 55.15 54.33 53.81 52.29 53.32 54.32 54.97 55.36
54.34 50.55 54.49 54.23 55.05 54.92 55.75 55.73 56.16 56.66 56.05 56.51 56.64 57.98 57.52 57.09 56.59 54.14 51.85 56.63 56.95 57.20 57.32 57.14 57.16 55.23 56.73 57.32 57.46 57.56 57.61 58.04 53.65 57.14 56.53 56.54 56.14 55.10 53.92 54.27 53.88 54.38 54.76 55.14
MSLP
1003.32 1003.12 1002.99 1002.58 1002.42 1002.54 1002.17 1001.87 1001.87 1001.33 1002.05 1002.08 1003.39 1004.26 1005.29 1006.16 1007.21 1007.67 1008.32 1008.47 1008.50 1008.54 1008.65 1008.83 1008.52 1008.28 1008.77 1009.14 1009.71 1010.33 1011.11 1012.09 1013.06 1013.71 1014.06 1014.76 1015.33 1015.08 1015.14 1014.91 1015.65 1015.83 1015.64 1015.72
1003.35 1003.60 1003.14 1002.78 1002.65 1002.37 1002.21 1002.16 1002.06 1001.84 1001.74 1002.62 1003.95 1004.67 1005.74 1006.77 1007.59 1008.30 1008.64 1009.18 1009.53 1009.66 1009.55 1009.81 1009.88 1009.79 1009.71 1010.23 1010.20 1009.81 1010.71 1012.03 1012.36 1012.29 1012.77 1013.75 1014.64 1014.84 1015.23 1015.74 1015.04 1015.67 1015.83 1016.02
1003.52 1003.75 1003.53 1002.65 1002.14 1002.54 1002.00 1001.75 1001.29 1001.39 1001.31 1002.68 1003.96 1004.91 1005.78 1006.98 1007.55 1008.17 1008.83 1009.45 1009.94 1010.05 1010.33 1010.63 1011.10 1011.38 1011.98 1011.02 1012.24 1010.60 1010.53 1011.11 1012.72 1012.01 1011.06 1013.34 1014.56 1014.26 1014.09 1015.68 1015.70 1014.97 1015.75 1016.45
1004.07 1004.10 1003.40 1002.06 1002.33 1002.23 1002.59 1001.71 1001.65 1001.81 1002.08 1002.85 1003.96 1005.01 1005.99 1006.79 1007.26 1008.03 1008.80 1009.54 1010.11 1010.64 1010.89 1011.15 1011.78 1012.19 1012.42 1012.91 1013.43 1012.06 1012.66 1012.58 1012.05 1011.40 1014.13 1014.98 1013.84 1014.15 1014.47 1015.46 1015.13 1015.35 1015.70 1016.11
1004.93 1003.80 1003.10 1002.57 1002.58 1002.85 1002.49 1001.44 1001.62 1001.97 1002.47 1003.32 1004.41 1005.36 1006.31 1006.91 1007.42 1008.01 1008.85 1009.71 1010.54 1011.15 1011.55 1011.94 1012.20 1012.52 1012.79 1013.22 1013.14 1013.25 1013.06 1013.25 1013.14 1011.38 1015.22 1016.03 1014.29 1014.05 1014.63 1015.06 1014.53 1014.70 1015.40 1015.38
1005.47 1004.18 1003.02 1002.41 1002.89 1003.12 1003.13 1002.02 1001.82 1002.09 1002.51 1003.67 1004.67 1005.09 1005.69 1006.87 1007.61 1008.58 1009.53 1010.39 1010.98 1011.19 1011.58 1012.23 1012.88 1012.84 1013.03 1013.23 1013.44 1013.80 1013.57 1013.96 1013.42 1014.37 1014.67 1015.07 1014.99 1015.04 1015.46 1015.58 1014.97 1014.84 1014.97 1014.99
1004.92 1004.57 1003.56 1003.62 1003.71 1003.78 1003.43 1002.55 1002.40 1002.74 1003.33 1004.30 1005.09 1005.59 1006.14 1007.36 1008.36 1009.20 1009.87 1010.77 1011.59 1011.92 1012.15 1012.59 1013.17 1013.34 1013.34 1013.58 1013.99 1014.18 1013.91 1014.14 1014.52 1014.72 1015.41 1015.18 1015.19 1015.22 1015.27 1015.50 1015.59 1015.22 1015.49 1015.51
1006.25 1005.42 1004.71 1004.75 1004.49 1004.42 1004.22 1003.46 1003.38 1003.33 1003.89 1004.80 1005.68 1006.53 1007.35 1008.02 1008.79 1009.73 1010.51 1011.16 1011.42 1012.30 1012.63 1013.00 1013.37 1013.46 1013.65 1013.89 1014.14 1013.80 1014.13 1014.64 1015.17 1015.51 1015.17 1015.32 1015.35 1015.45 1015.83 1015.55 1015.29 1015.35 1015.45 1015.38
1006.69 1005.50 1005.28 1005.28 1005.00 1004.77 1004.67 1004.28 1003.79 1004.05 1004.53 1005.11 1005.84 1006.82 1007.71 1008.29 1008.91 1009.70 1010.52 1011.57 1011.85 1012.35 1012.80 1013.29 1013.71 1014.02 1014.21 1014.75 1014.76 1014.42 1014.63 1015.06 1015.13 1015.12 1015.18 1015.53 1015.90 1015.47 1015.42 1015.32 1015.23 1015.09 1014.95 1014.79
1006.94 1006.03 1005.43 1005.19 1005.04 1004.93 1004.84 1004.58 1004.39 1004.71 1005.11 1005.54 1006.23 1007.21 1007.92 1009.04 1009.65 1010.19 1011.01 1011.50 1012.19 1012.59 1013.05 1013.68 1014.15 1014.51 1014.71 1014.95 1014.96 1014.89 1015.05 1015.54 1015.61 1015.68 1015.78 1015.75 1015.79 1015.92 1015.68 1015.37 1015.29 1015.19 1014.85 1014.73
1007.22 1006.29 1005.56 1005.35 1005.28 1005.09 1004.94 1005.07 1005.09 1005.36 1005.67 1006.08 1006.82 1007.67 1008.54 1009.26 1010.02 1010.61 1011.35 1012.02 1012.18 1012.86 1013.32 1014.07 1014.64 1014.90 1015.14 1015.20 1015.07 1015.08 1015.35 1015.78 1015.98 1016.07 1016.26 1016.18 1016.23 1015.97 1015.51 1015.51 1015.69 1015.46 1015.11 1014.80
1007.93 1007.71 1007.60 1006.43 1006.03 1005.88 1005.46 1005.39 1005.65 1005.89 1006.36 1006.94 1007.34 1008.08 1008.86 1009.66 1010.32 1011.07 1011.58 1012.03 1012.52 1013.22 1013.75 1014.34 1014.81 1015.16 1015.34 1015.46 1015.46 1015.53 1015.78 1015.98 1016.15 1016.14 1016.08 1016.00 1015.81 1015.64 1015.78 1015.58 1015.58 1015.51 1015.32 1015.44
1009.08 1008.67 1008.12 1007.19 1006.56 1006.30 1006.07 1006.16 1006.24 1006.38 1006.82 1007.29 1008.16 1008.68 1009.36 1010.05 1010.87 1011.51 1012.03 1012.49 1012.98 1013.50 1014.01 1014.54 1014.93 1015.24 1015.59 1015.83 1015.88 1015.92 1016.17 1016.42 1016.29 1016.11 1016.00 1015.99 1015.92 1015.75 1015.42 1015.38 1015.48 1015.29 1015.44 1015.58
1009.82 1009.04 1007.68 1007.11 1006.87 1006.81 1006.66 1006.73 1007.05 1007.17 1007.60 1008.11 1008.75 1009.41 1010.00 1010.74 1011.48 1012.01 1012.56 1013.09 1013.57 1013.96 1014.37 1014.69 1014.98 1015.29 1015.56 1015.78 1015.94 1016.03 1016.20 1016.49 1016.21 1016.02 1015.94 1015.90 1015.75 1015.59 1015.44 1015.08 1014.90 1014.80 1014.75 1015.14
1009.83 1009.51 1008.72 1007.89 1007.58 1007.39 1007.41 1007.36 1007.59 1007.94 1008.30 1008.74 1009.28 1009.76 1010.46 1011.13 1011.83 1012.45 1012.89 1013.38 1013.85 1014.22 1014.59 1014.79 1014.93 1015.05 1015.41 1015.59 1015.67 1015.68 1015.77 1015.88 1015.75 1015.59 1015.43 1015.63 1015.49 1015.20 1014.96 1014.86 1014.76 1014.60 1014.36 1014.07
1010.01 1009.23 1008.60 1008.17 1007.99 1008.09 1007.98 1008.01 1007.88 1008.36 1008.81 1009.27 1009.80 1010.32 1010.91 1011.50 1012.12 1012.66 1013.12 1013.55 1013.71 1013.96 1014.31 1014.54 1014.65 1014.70 1015.16 1015.31 1015.31 1015.15 1015.21 1015.57 1015.64 1015.12 1015.06 1015.01 1014.89 1014.71 1014.45 1014.33 1014.19 1013.98 1013.64 1013.29
1010.24 1009.21 1008.89 1008.59 1008.68 1008.74 1008.83 1008.92 1008.61 1009.10 1009.39 1009.77 1010.25 1010.81 1011.35 1011.91 1012.45 1012.95 1013.43 1013.84 1014.01 1014.18 1014.35 1014.36 1014.35 1014.49 1014.54 1014.69 1014.81 1014.48 1014.31 1014.25 1014.55 1014.55 1014.25 1014.17 1014.13 1013.84 1013.66 1013.41 1013.09 1012.91 1012.56 1012.25
1010.61 1010.06 1009.67 1009.15 1009.02 1009.06 1009.16 1009.78 1010.14 1009.86 1009.90 1010.36 1010.96 1011.53 1011.99 1012.39 1012.73 1013.23 1013.56 1013.91 1014.06 1014.00 1014.05 1014.12 1014.27 1014.31 1014.27 1014.18 1014.22 1013.99 1013.75 1013.55 1013.57 1013.47 1013.28 1013.19 1013.10 1012.97 1012.78 1012.61 1012.36 1011.97 1011.60 1011.42
1010.61 1010.08 1009.79 1009.51 1009.44 1009.59 1009.90 1010.03 1010.86 1011.23 1011.32 1011.41 1011.65 1012.08 1012.54 1012.81 1013.01 1013.27 1013.67 1013.82 1013.88 1013.79 1013.79 1013.98 1014.09 1013.91 1013.58 1013.48 1013.75 1013.23 1012.98 1012.80 1012.73 1012.64 1012.55 1012.65 1012.56 1012.29 1012.25 1011.98 1011.72 1011.29 1010.98 1010.85
1010.87 1010.67 1010.41 1010.31 1010.41 1010.11 1010.52 1010.50 1011.39 1011.53 1011.94 1012.03 1012.11 1012.30 1012.62 1012.86 1013.27 1013.25 1013.57 1013.60 1013.75 1013.66 1013.70 1013.79 1013.69 1013.52 1013.36 1013.22 1013.24 1012.61 1012.23 1012.15 1012.10 1012.04 1012.05 1011.98 1011.92 1011.77 1011.44 1011.46 1011.27 1010.91 1010.83 1010.69
1011.42 1011.34 1011.29 1010.96 1010.82 1011.07 1011.00 1010.82 1011.51 1011.98 1012.11 1012.35 1012.30 1012.47 1012.69 1013.22 1013.33 1013.55 1013.68 1013.50 1013.33 1013.53 1013.69 1013.72 1013.53 1013.21 1012.99 1012.89 1012.56 1011.99 1011.71 1011.72 1011.60 1011.52 1011.59 1011.40 1011.28 1011.19 1011.36 1010.99 1010.86 1010.85 1010.66 1010.48
1011.94 1011.69 1011.70 1011.67 1011.45 1011.52 1011.19 1010.94 1011.86 1012.06 1012.13 1012.40 1012.67 1012.89 1013.08 1013.20 1013.37 1013.59 1013.68 1013.59 1013.26 1013.82 1013.63 1013.34 1013.23 1013.32 1013.18 1013.05 1012.17 1011.85 1011.58 1011.45 1011.39 1011.29 1011.21 1011.20 1011.13 1011.17 1010.92 1010.76 1010.76 1010.61 1010.45 1010.45
1012.17 1012.27 1012.13 1012.38 1012.25 1011.69 1011.57 1011.39 1011.61 1011.90 1012.33 1012.66 1012.74 1012.93 1013.02 1012.93 1013.05 1013.10 1012.91 1013.28 1013.35 1013.43 1013.47 1013.17 1013.34 1013.23 1013.03 1012.55 1011.98 1011.63 1011.49 1011.32 1011.22 1011.20 1011.07 1010.76 1010.71 1010.86 1010.74 1010.68 1010.65 1010.51 1010.48 1010.44
1012.09 1012.55 1012.79 1012.59 1012.32 1012.05 1011.74 1011.92 1012.08 1012.25 1012.50 1012.65 1012.84 1012.95 1012.94 1012.82 1012.81 1012.89 1012.87 1013.11 1013.35 1013.29 1012.85 1012.91 1012.88 1012.88 1012.85 1012.01 1011.63 1011.39 1011.21 1011.52 1011.46 1011.10 1010.60 1010.81 1010.54 1010.79 1010.53 1010.52 1010.54 1010.47 1010.52 1010.41
1012.35 1012.42 1012.77 1012.61 1012.61 1012.10 1011.90 1012.16 1012.44 1012.75 1012.72 1012.96 1012.95 1012.95 1012.72 1012.65 1012.60 1012.49 1012.65 1012.61 1012.76 1012.80 1012.33 1012.52 1012.63 1012.54 1012.03 1011.65 1011.84 1011.51 1011.19 1010.92 1010.68 1010.54 1010.33 1010.48 1010.16 1010.09 1010.42 1010.70 1010.67 1010.49 1010.26 1010.11
1012.44 1012.68 1012.73 1012.86 1012.58 1012.36 1012.38 1012.31 1012.38 1012.53 1012.44 1012.60 1012.41 1012.25 1012.21 1012.31 1012.34 1012.46 1012.36 1012.53 1012.38 1012.29 1012.05 1011.90 1011.82 1011.93 1011.54 1011.37 1011.39 1011.21 1011.01 1010.63 1010.35 1010.05 1010.11 1009.99 1009.98 1010.16 1010.33 1010.27 1010.16 1009.99 1009.83 1009.67
1012.36 1012.51 1012.74 1012.56 1012.33 1012.30 1012.17 1012.18 1012.30 1012.15 1012.27 1012.17 1012.08 1012.07 1012.07 1012.00 1011.92 1012.09 1012.10 1011.81 1011.69 1011.61 1011.59 1011.57 1011.39 1011.29 1011.25 1010.99 1010.89 1010.71 1010.51 1010.47 1010.16 1010.00 1009.89 1009.76 1009.69 1009.55 1009.46 1009.67 1009.55 1009.39 1009.23 1009.13
Wind_Speed
9 7 5 8 9 14 13 10 8 9 8 13 3 8 6 7 8 9 7 7 8 9 7 6 7 10 12 15 17 20 19 18 15 11 11 9 7 8 5 8 4 4 3 2
3 4 0 2 7 11 12 6 12 9 13 1 4 4 7 8 8 8 8 7 6 6 8 8 6 9 12 13 17 18 18 15 12 12 11 9 8 8 7 3 6 4 4 4
9 3 4 6 8 12 7 7 8 9 6 5 4 7 11 10 9 9 8 8 8 8 8 8 7 7 4 15 9 15 15 9 6 6 8 3 1 3 10 7 5 5 2 2
3 2 10 6 2 4 14 8 11 10 6 1 3 7 11 12 12 12 12 12 11 8 9 10 8 7 7 7 5 9 8 9 9 10 1 4 3 3 5 3 6 4 2 1
5 9 5 4 4 6 8 10 12 12 5 5 9 11 8 11 12 13 13 11 10 9 10 10 10 10 10 9 9 8 9 8 7 16 5 2 5 6 5 4 5 5 3 4
3 6 12 4 3 2 1 11 6 11 4 8 11 6 6 14 13 14 13 10 10 12 11 10 9 10 11 10 10 8 9 8 9 6 8 5 5 4 1 3 3 3 4 3
9 8 7 3 0 3 8 9 4 5 3 7 4 4 12 14 15 15 14 15 13 12 11 11 10 11 12 11 10 9 10 10 8 8 6 6 6 4 3 2 2 2 3 3
2 5 9 2 2 6 6 6 6 4 1 9 10 14 15 16 17 17 16 15 14 11 9 9 10 10 10 10 8 9 9 9 8 6 5 5 5 4 2 1 2 3 3 5
6 2 2 3 6 6 7 7 5 4 5 11 14 16 17 17 18 16 16 12 10 11 11 9 8 7 10 6 6 8 8 6 6 6 7 6 3 5 4 4 3 3 4 4
4 1 5 4 5 4 3 6 7 3 7 10 12 15 17 15 15 14 12 12 12 13 13 11 9 9 9 7 7 8 8 6 5 4 4 4 4 4 3 3 4 4 4 5
5 6 10 1 5 7 5 3 4 5 6 10 12 11 13 13 13 13 13 11 10 10 12 12 10 9 6 5 6 7 7 5 4 3 1 1 3 4 4 3 4 6 5 5
4 4 5 9 9 12 8 2 3 3 8 9 11 12 12 10 10 10 12 12 11 11 11 9 8 8 7 7 6 7 6 4 4 3 2 1 3 4 6 10 11 9 10 8
6 13 15 16 12 7 7 2 4 6 6 10 11 12 11 11 10 11 11 11 11 10 9 8 8 7 6 6 6 6 5 4 4 2 2 1 2 3 5 3 13 10 9 10
5 12 8 3 7 6 3 5 7 8 8 9 11 12 13 13 13 12 11 11 10 9 9 8 7 7 6 5 5 5 4 2 1 0 1 2 3 4 5 5 6 5 5 5
13 10 12 13 5 1 4 7 8 8 10 11 10 13 14 15 13 11 10 9 8 8 6 6 5 5 5 5 5 4 3 2 2 3 3 3 4 4 4 4 4 5 6 5
17 14 9 7 4 4 7 8 9 9 9 11 12 12 12 12 11 11 10 8 7 5 5 4 4 4 5 6 5 5 5 7 6 4 4 4 4 5 5 4 5 5 6 6
13 12 13 8 3 2 6 5 8 8 10 11 12 11 11 10 9 9 7 5 4 3 2 2 3 3 3 5 5 5 5 5 5 6 5 5 6 6 6 7 7 7 8 7
7 9 10 9 6 6 4 2 1 8 10 12 11 10 11 10 9 7 6 4 1 2 3 3 4 5 5 6 6 6 6 6 6 6 6 5 6 7 7 8 8 8 8 8
8 7 5 3 4 5 5 10 5 6 6 8 10 9 7 6 7 6 4 1 3 5 4 4 4 6 6 6 5 6 7 8 8 7 6 5 7 7 6 6 8 8 8 9
7 8 6 6 5 7 7 9 6 7 6 8 10 8 4 4 3 3 2 4 5 5 6 8 7 6 6 7 6 7 8 9 9 8 7 6 7 7 7 6 7 7 7 7
5 5 7 7 7 3 6 9 7 10 8 4 5 7 5 5 5 3 3 4 3 4 5 7 6 5 5 7 9 9 8 8 8 6 5 4 8 7 5 7 6 6 6 8
4 5 6 6 6 2 5 9 9 8 9 8 5 6 6 5 4 5 6 7 3 3 5 4 4 4 7 10 8 9 9 9 8 7 6 5 6 5 6 5 6 6 6 8
4 5 7 6 1 2 4 6 7 7 8 7 7 6 6 3 4 4 4 2 4 2 4 4 4 6 9 7 7 8 8 8 7 5 5 5 5 4 4 4 5 6 6 7
6 6 4 4 3 2 4 3 5 7 6 6 5 4 4 4 4 5 5 4 8 5 3 3 5 7 8 6 7 7 7 4 4 4 5 5 4 3 4 4 5 5 6 6
7 8 3 5 4 2 5 6 7 5 3 4 3 4 4 3 3 1 3 4 4 5 4 2 5 7 5 4 5 6 6 5 4 5 5 3 4 3 3 4 5 6 6 6
5 3 1 5 3 1 3 3 3 2 3 4 4 2 2 1 2 4 4 3 5 5 5 5 5 4 6 6 5 6 7 6 6 5 6 5 4 3 4 5 6 7 6 6
3 3 3 3 2 2 2 2 2 1 2 3 4 3 1 2 3 4 4 5 4 4 4 5 6 5 5 6 5 6 6 6 5 5 5 5 6 6 6 6 7 6 5 5
Wind_Direction
270 277 244 263 213 187 201 215 231 295 231 269 17 273 211 149 123 114 111 122 130 134 124 100 101 117 120 124 130 122 112 108 114 121 106 100 84 74 65 72 57 31 57 73
198 253 243 276 251 217 223 239 254 252 272 304 31 120 140 138 131 126 133 127 115 103 103 97 91 106 120 131 137 128 119 118 134 135 127 129 150 160 118 79 109 78 26 8
248 191 270 243 240 238 219 220 241 218 248 122 124 162 155 143 159 157 146 131 118 106 85 74 64 71 86 125 166 129 125 124 192 54 69 121 214 119 121 141 159 111 72 301
220 161 232 292 329 234 258 268 234 270 254 267 99 147 151 168 159 152 142 134 120 97 94 89 92 90 89 121 144 96 104 111 90 105 317 213 174 122 101 143 108 113 141 277
231 228 304 240 195 204 215 257 221 244 239 110 129 134 143 167 166 154 142 129 119 121 119 121 122 115 114 106 87 92 93 67 62 97 92 237 63 48 23 355 39 47 353 348
166 255 254 279 161 138 196 257 230 226 236 158 155 190 157 168 160 138 133 124 128 126 120 129 131 131 124 123 117 117 105 104 93 101 130 123 97 73 32 338 1 11 341 341
261 260 263 358 354 236 222 281 333 255 259 160 176 9 124 137 125 130 130 134 134 139 150 151 151 149 141 137 130 127 117 111 111 112 116 104 97 87 77 42 351 19 307 290
187 238 267 28 174 235 353 322 310 313 145 141 120 126 131 132 134 136 140 145 151 147 141 139 144 139 126 124 128 108 99 90 88 84 74 69 60 69 9 349 317 306 284 272
241 300 4 288 273 298 291 287 320 349 125 149 131 140 142 144 148 149 146 147 138 128 122 117 114 113 112 104 99 97 88 76 63 55 48 42 41 27 347 348 323 314 306 304
279 144 284 281 270 261 289 296 333 14 129 142 133 148 148 139 147 141 145 137 140 134 118 103 96 94 101 112 111 102 97 87 73 54 23 22 10 1 337 339 321 305 307 308
291 297 312 235 275 307 314 344 21 70 110 121 130 143 142 143 145 140 135 142 133 124 115 112 111 103 106 108 99 95 93 94 91 90 117 97 325 342 340 326 311 316 316 316
297 319 285 294 330 333 284 285 57 101 103 96 126 133 135 127 122 130 137 132 120 118 119 117 115 111 99 92 101 107 102 90 65 82 83 33 352 340 246 273 289 270 276 277
290 316 291 283 290 304 269 183 118 117 125 119 113 127 129 127 123 119 121 117 119 114 108 113 114 112 114 120 127 120 111 116 113 94 68 4 301 310 324 262 239 253 241 243
2 328 279 254 332 323 237 132 108 101 102 113 120 123 123 118 120 115 113 116 122 125 131 128 125 125 133 136 133 145 158 157 212 326 307 296 303 305 297 311 318 312 217 236
350 332 284 290 278 189 156 146 139 119 126 120 123 123 125 124 121 121 120 115 115 126 137 145 153 152 154 161 180 186 200 215 246 268 264 286 284 292 298 304 303 308 307 250
321 323 336 316 298 214 176 166 149 142 134 132 128 126 120 117 121 124 127 134 140 141 158 179 207 189 179 200 214 223 219 215 242 268 285 285 284 283 286 286 278 266 278 291
320 333 341 332 292 211 238 220 160 155 139 137 125 123 123 123 127 134 139 139 103 124 175 255 294 284 254 247 256 271 272 268 233 260 270 284 284 282 281 276 285 292 290 299
310 296 297 277 259 207 155 21 56 137 137 129 128 132 137 148 150 152 163 156 143 316 295 284 283 291 272 265 264 274 268 269 267 271 286 287 290 297 287 290 293 299 311 318
345 336 349 355 166 135 123 106 98 86 100 119 125 127 137 138 147 148 138 125 335 324 9 350 347 290 296 292 270 275 271 276 279 278 280 290 284 294 297 303 311 315 322 325
15 22 47 71 87 125 135 107 118 119 141 139 129 119 115 148 147 106 33 308 300 291 299 297 302 294 312 313 305 297 293 288 283 280 281 294 296 296 312 314 307 320 324 330
18 34 43 63 74 117 144 130 149 144 130 112 142 152 158 148 141 157 239 275 317 298 283 299 298 315 316 324 316 310 306 299 292 276 267 276 297 303 323 311 321 319 321 330
13 56 64 51 55 20 112 107 137 135 143 151 151 139 145 155 174 216 245 260 289 219 294 278 294 344 315 315 314 311 307 296 292 284 273 279 280 296 304 315 309 311 326 328
62 44 35 19 9 280 122 130 147 153 143 139 148 164 187 191 200 221 256 157 247 218 280 275 340 315 334 303 312 310 309 305 298 288 273 295 290 302 291 298 307 317 314 318
127 82 43 310 341 207 125 114 149 131 141 147 135 150 178 213 219 225 254 262 254 261 251 310 329 320 296 305 327 338 339 319 284 263 288 315 301 259 254 280 300 309 302 299
107 92 350 335 317 8 106 125 125 118 109 123 160 234 205 220 265 349 293 295 291 257 272 180 269 277 285 321 338 322 325 310 311 304 310 293 268 264 281 304 283 282 293 294
134 90 308 326 307 196 168 135 137 136 156 193 231 319 27 351 256 253 248 268 267 261 276 278 278 289 303 307 294 304 314 316 304 302 304 286 270 266 239 236 262 271 275 279
102 168 257 274 243 218 191 169 209 207 202 246 285 293 303 291 285 280 269 270 271 284 275 276 273 264 290 298 298 301 302 293 290 311 298 270 251 253 259 259 254 257 259 256